Trinidad, Colorado, United States (81082)
Lat: 37.17N, Lon: 104.5W
Wx Zone: COZ088
Local Info
Past Weather Observations for Friday, April 18, 2014

NOTE: This archive is for the closest National Weather Service station to Trinidad. Information may differ from the station used for current weather conditions.

Time Weather Temperature Dewpoint Humidity Pressure Winds Precip Visibility
23:54
Clear
57°F / 14°C 36°F / 2°C 44% 30.01 in
(1016 mb)
SSW 21.9 mph
(SSW 35 kph)
- 10SM
22:54
Clear
57°F / 14°C 36°F / 2°C 44% 30.01 in
(1016 mb)
SSW 12.7 mph
(SSW 20 kph)
- 10SM
21:54
Clear
61°F / 16°C 36°F / 2°C 39% 30.01 in
(1016 mb)
SSW 11.5 mph
(SSW 19 kph)
- 10SM
20:54
Clear
61°F / 16°C 34°F / 1°C 36% 30.01 in
(1016 mb)
Variable 4.6 mph
(Variable 7 kph)
- 10SM
19:54
Clear
63°F / 17°C 36°F / 2°C 37% 29.98 in
(1015 mb)
SSE 20.7 mph
(SSE 33 kph)
- 10SM
18:54
Clear
66°F / 19°C 36°F / 2°C 32% 29.95 in
(1014 mb)
SSE 24.2 mph
(SSE 39 kph)
- 10SM
17:54
Clear
70°F / 21°C 30°F / -1°C 23% 29.95 in
(1014 mb)
SSE 19.6 mph
(SSE 32 kph)
- 10SM
17:12
Partly Cloudy
72°F / 22°C 30°F / -1°C 22% 29.95 in
(1014 mb)
S 19.6 mph
(S 32 kph)
- 10SM
16:54
Clear
73°F / 23°C 27°F / -3°C 17% 29.95 in
(1014 mb)
SW 17.3 mph
(SW 28 kph)
- 10SM
15:54
Partly Cloudy
75°F / 24°C 27°F / -3°C 16% 29.95 in
(1014 mb)
SW 18.4 mph
(SW 30 kph)
- 10SM
14:54
Clear
75°F / 24°C 21°F / -6°C 13% 29.98 in
(1015 mb)
SSE 11.5 mph
(SSE 19 kph)
- 10SM
13:54
Clear
75°F / 24°C 18°F / -8°C 11% 30.01 in
(1016 mb)
SE 5.8 mph
(SE 9 kph)
- 10SM
12:54
Clear
75°F / 24°C 25°F / -4°C 15% 30.04 in
(1017 mb)
SE 13.8 mph
(SE 22 kph)
- 10SM
11:54
Clear
72°F / 22°C 21°F / -6°C 15% 30.04 in
(1017 mb)
Variable 3.5 mph
(Variable 6 kph)
- 10SM
10:54
Clear
70°F / 21°C 27°F / -3°C 20% 30.06 in
(1018 mb)
Variable 6.9 mph
(Variable 11 kph)
- 10SM
09:54
Clear
68°F / 20°C 27°F / -3°C 21% 30.09 in
(1019 mb)
Variable 4.6 mph
(Variable 7 kph)
- 10SM
08:54
Clear
61°F / 16°C 30°F / -1°C 31% 30.09 in
(1019 mb)
SSW 9.2 mph
(SSW 15 kph)
- 10SM
07:54
Clear
54°F / 12°C 34°F / 1°C 47% 30.09 in
(1019 mb)
SSW 15 mph
(SSW 24 kph)
- 10SM
06:54
Clear
46°F / 8°C 32°F / 0°C 57% 30.09 in
(1019 mb)
SSW 17.3 mph
(SSW 28 kph)
- 10SM
05:54
Clear
43°F / 6°C 30°F / -1°C 61% 30.09 in
(1019 mb)
SSW 13.8 mph
(SSW 22 kph)
- 10SM
04:54
Clear
43°F / 6°C 30°F / -1°C 61% 30.09 in
(1019 mb)
SSW 19.6 mph
(SSW 32 kph)
- 10SM
03:54
Clear
43°F / 6°C 30°F / -1°C 61% 30.09 in
(1019 mb)
SSW 10.4 mph
(SSW 17 kph)
- 10SM
03:24
Clear
43°F / 6°C 30°F / -1°C 61% 30.06 in
(1018 mb)
SW 15 mph
(SW 24 kph)
- 10SM
02:54
Clear
43°F / 6°C 30°F / -1°C 61% 30.06 in
(1018 mb)
SSW 20.7 mph
(SSW 33 kph)
- 10SM
01:54
Clear
43°F / 6°C 32°F / 0°C 66% 30.06 in
(1018 mb)
SSW 21.9 mph
(SSW 35 kph)
- 10SM
00:54
Clear
45°F / 7°C 32°F / 0°C 61% 30.09 in
(1019 mb)
SSW 20.7 mph
(SSW 33 kph)
- 10SM
Time Weather Temperature Dewpoint Humidity Pressure Winds Precip Visibility


Weather for websites

WeatherForYou.com, LLC is not responsible for any damages or problems caused by this service. Current weather conditions are obtained from the closest station including government and personal stations which may have varying degrees of accuracy. Weather forecasts are derived from the NOAA NDFD. Like all things, this site belongs to Jesus Christ... He just trusts me to maintain it. If you have any questions or comments email webmaster@weatherforyou.com

Copyright © 2014, WeatherForYou.com LLC. All rights reserved.